Orbital Elements at Epoch 2459200.5 (2020-Dec-17.0) TDB
Reference: JPL 18 (heliocentric ecliptic J2000)
Element | Value | Uncertainty (1-sigma) | Units |
e | .04128133415756771 | 3.8071e-08 | |
a | 2.614104398067775 | 1.359e-08 | au |
q | 2.506190680888372 | 9.7465e-08 | au |
i | 1.564710009812294 | 4.1205e-06 | deg |
node | 90.02936663047633 | 0.00016414 | deg |
peri | 168.2062775053121 | 0.00017282 | deg |
M | 174.6600171599774 | 5.4814e-05 | deg |
tp | 2458451.513799455296 (2018-Nov-29.01379946) | 0.00023423 | TDB |
period | 1543.770787272538 4.23 | 1.2039e-05 3.296e-08 | d yr |
n | .2331952404903522 | 1.8185e-09 | deg/d |
Q | 2.722018115247178 | 1.4151e-08 | au |
|
| | Orbit Determination Parameters
Additional Information
|